Location: *
(52.6311°N, 22.0531°E)
Time: 19:17:20
(UTC+00:00)

Daily predictions for brighter satellites

Satellite Brightness Start Highest point End
(mag) Time Altitude Azimuth Time Altitude Azimuth Time Altitude Azimuth
NOSS 2-1 (D) 4.4 16:00:59 10° NW 16:06:03 86° SW 16:13:09 10° SE
Cosmos 1758 3.3 16:06:08 10° S 16:10:03 59° E 16:13:58 10° NNE
Unknown 3.2 16:08:15 10° W 16:11:47 89° SSE 16:15:20 10° E
ASTEX 1 4.0 16:07:16 10° NNE 16:11:50 36° E 16:16:24 10° SSE
Cosmos 332 Rocket 3.9 16:08:07 10° SSW 16:12:58 87° WNW 16:17:53 10° NNE
FengYun 1-2 T 4.3 16:10:47 10° SSE 16:16:21 65° ENE 16:21:56 10° N
Cosmos 1726 Rocket 4.2 16:12:58 10° SSE 16:16:54 33° E 16:20:50 10° NNE
CSL-04 Debris 4.3 16:11:43 10° SE 16:17:00 54° ENE 16:22:21 10° N
Cosmos 968 Rocket 3.6 16:12:27 10° NNW 16:17:46 87° ENE 16:23:03 10° SSE
Okean-O 3.1 16:16:24 10° S 16:20:48 67° WSW 16:25:15 10° NNW
Cosmos 1821 Rocket 3.9 16:15:40 10° N 16:21:47 73° ENE 16:27:54 10° SSE
Unknown 3.1 16:18:24 10° W 16:21:49 84° N 16:25:07 11° E
Cosmos 1242 Rocket 3.2 16:18:40 10° N 16:22:05 34° ENE 16:25:29 10° SE
Cosmos 1302 Rocket 4.1 16:18:19 10° SSW 16:23:33 88° WNW 16:28:50 10° NNE
Cosmos 2058 Rocket 3.9 16:22:58 10° SSE 16:26:40 28° E 16:30:24 10° NNE
Unknown 4.4 16:22:55 10° SW 16:26:43 36° SSE 16:30:15 12° E
Ariane Rocket 3.7 16:22:27 10° SE 16:27:02 35° ENE 16:31:38 10° N
Unknown 2.8 16:25:07 10° W 16:28:14 89° NE 16:31:03 12° E
Unknown 4.4 16:24:33 10° SW 16:28:22 36° SSE 16:31:50 12° E
Cosmos 1939 Rocket 3.6 16:26:09 10° SE 16:29:40 31° ENE 16:33:16 10° N
Unknown 4.4 16:26:13 10° SW 16:30:03 37° SSE 16:33:28 12° E
Cosmos 839 Rocket 4.1 16:23:55 10° NW 16:30:05 72° NE 16:36:44 10° SE
Cosmos 2228 3.3 16:26:12 10° SSE 16:30:22 45° E 16:34:32 10° NNE
Falcon 9 debris 3.1 16:27:59 10° W 16:31:27 83° N 16:34:25 14° E
Unknown 4.4 16:27:51 10° SW 16:31:42 38° SSE 16:35:03 13° E
Lacrosse 5 rocket 2.1 16:28:19 10° WNW 16:31:55 47° SW 16:35:40 10° SE
ATLAS CENTAUR R/B 3.7 16:28:27 10° WNW 16:32:09 21° NNW 16:35:43 10° NE
Cosmos 1844 Rocket 2.9 16:26:52 10° S 16:32:17 49° ESE 16:37:43 10° NE
Cosmos 1503 Rocket 4.2 16:27:14 10° NNW 16:32:25 76° WSW 16:37:35 10° SSE
Nadezhda 3 Rocket 4.0 16:26:53 10° S 16:33:06 69° E 16:39:25 10° NNE
Unknown 3.3 16:30:42 10° WSW 16:34:26 77° SSE 16:37:36 14° E
Unknown 4.3 16:31:05 10° SW 16:34:57 39° SSE 16:38:12 14° E
Unknown 3.2 16:31:52 10° W 16:35:23 83° N 16:38:16 15° E
Cosmos 1992 Rocket 4.2 16:30:40 10° S 16:35:42 51° ESE 16:40:47 10° NNE
Unknown 3.6 16:32:01 10° WSW 16:35:52 62° SSE 16:39:06 14° E
Cosmos 1934 Rocket 4.0 16:30:23 10° N 16:36:40 63° ENE 16:42:58 10° SSE
Cosmos 1535 Rocket 4.5 16:30:27 10° N 16:36:41 64° ENE 16:42:47 10° SSE
Unknown 4.3 16:32:48 10° SW 16:36:42 40° SSE 16:39:53 14° E
FREGAT/IRIS 4.5 16:37:00 13° ENE 16:37:00 13° ENE 16:38:16 10° NE
Unknown 3.5 16:33:15 10° WSW 16:37:04 68° SSE 16:40:13 15° E
Unknown 4.2 16:34:25 10° SW 16:38:19 41° SSE 16:41:27 15° E
Unknown 4.2 16:36:01 10° SW 16:39:55 41° SSE 16:42:59 15° E
Unknown 4.2 16:36:34 10° SW 16:40:29 42° SSE 16:43:33 15° E
Cosmos 1777 Rocket 4.3 16:36:31 10° NNW 16:41:35 46° ENE 16:46:35 10° SE
Cosmos 921 Rocket 3.6 16:37:44 10° SSE 16:41:51 36° ESE 16:45:57 10° NE
COSMO-SKYMED 1 2.5 16:37:42 10° NNE 16:42:03 63° ESE 16:46:22 10° S
Unknown 4.2 16:39:11 10° SW 16:43:06 41° SSE 16:46:01 16° E
Resurs 01 Rocket 3.7 16:44:13 10° NE 16:44:45 10° NE 16:45:16 10° NE
Cosmos 1328 3.9 16:41:41 10° N 16:45:38 54° ENE 16:49:32 10° SSE
Unknown 4.2 16:42:31 10° SW 16:46:26 43° SSE 16:49:15 17° E
Cosmos 1908 4.2 16:43:19 10° SE 16:46:34 25° E 16:49:49 10° NNE
Unknown 4.1 16:44:06 10° SW 16:48:02 43° SSE 16:50:48 18° E
CZ-4 R/B 1.7 16:44:15 10° S 16:48:24 76° WSW 16:52:39 10° NNW
Cosmos 2278 Rocket 3.4 16:44:43 10° SE 16:48:38 20° E 16:52:35 10° NE
YAOGAN 6 2.8 16:45:23 10° S 16:49:03 78° WSW 16:52:44 10° NNW
Cosmos 1470 3.6 16:45:21 10° SSW 16:49:16 56° WNW 16:53:13 10° N
Unknown 4.0 16:45:57 10° SW 16:49:56 47° SSE 16:52:40 19° E
H-2A R/B 3.3 16:47:53 15° E 16:50:45 23° NE 16:54:54 10° N
Unknown 4.1 16:47:23 10° SW 16:51:21 45° SSE 16:53:59 19° E
Cosmos 1844 3.8 16:46:03 10° S 16:51:36 54° ESE 16:57:14 10° NE
Cosmos 2084 3.9 16:48:17 10° SSW 16:52:36 44° SE 16:56:05 15° ENE
USA 116 3.4 16:49:58 10° NNE 16:52:59 45° ESE 16:56:04 10° S
Unknown 4.0 16:49:04 10° SW 16:53:02 46° SSE 16:55:36 20° E
Lacrosse 5 2.1 16:48:04 10° WNW 16:53:06 60° NNE 16:56:44 19° E
Cosmos 1825 Rocket 4.5 16:49:24 10° NNW 16:53:39 53° W 16:57:54 10° S
SJ 16-02 3.4 16:53:02 10° NNE 16:54:39 12° NE 16:55:32 11° NE
Cosmos 1953 Rocket 3.8 16:50:28 10° NNW 16:54:52 73° W 16:59:12 10° S
Unknown 4.0 16:52:20 10° SW 16:56:20 48° SSE 16:58:47 21° E
Unknown 4.0 16:54:02 10° SW 16:58:02 49° SSE 17:00:25 22° E
Unknown 4.0 16:55:41 10° SW 16:59:41 49° SSE 17:02:01 23° E
Unknown 3.9 16:57:20 10° SW 17:01:21 50° SSE 17:03:38 23° E
HJ-1C 3.8 16:59:36 15° SE 17:02:02 40° ENE 17:05:14 10° N
ATLAS 5 CENTAUR R/B 1.6 16:57:56 10° SW 17:02:18 83° SE 17:07:12 10° NE
COBE Rocket 4.3 16:57:46 10° N 17:02:58 73° WNW 17:08:04 10° SSW
Cosmos 304 Rocket 4.4 16:59:11 10° SW 17:03:56 60° WNW 17:08:43 10° NNE
Unknown 3.9 17:00:38 10° SW 17:04:39 52° SSE 17:06:49 25° E
Unknown 3.8 17:02:15 10° SW 17:06:18 54° SSE 17:08:26 26° E
Cosmos 292 Rocket 4.2 17:02:05 10° S 17:06:27 38° ESE 17:10:52 10° NE
Unknown 3.8 17:02:31 10° SW 17:06:35 57° SSE 17:08:44 26° E
BREEZE-M DEB (TANK) 4.0 17:03:39 10° W 17:07:54 61° SSW 17:17:20 14° ESE
Unknown 3.8 17:04:07 10° SW 17:08:11 58° SSE 17:10:16 27° E
Unknown 3.8 17:07:09 10° SW 17:11:13 56° SSE 17:13:08 28° E
Cosmos 1606 Rocket 4.0 17:07:52 10° SSW 17:12:14 64° WNW 17:16:35 10° N
Unknown 3.7 17:10:29 10° SW 17:14:33 58° SSE 17:16:21 30° E
Cosmos 2058 4.0 17:11:29 10° N 17:15:03 26° ENE 17:15:15 26° ENE
Unknown 3.9 17:12:47 10° W 17:15:12 32° SSW 17:16:06 25° SSE
Unknown 3.7 17:12:12 10° SW 17:16:17 59° SSE 17:18:01 31° E
CSL-04 Rocket 4.3 17:11:43 10° S 17:17:11 59° WSW 17:22:39 10° NNW
SWAS 4.4 17:13:08 10° SSW 17:17:21 62° ESE 17:21:11 13° NE
Unknown 3.7 17:13:47 10° WSW 17:17:52 60° SSE 17:19:33 32° E
Cosmos 2263 Rocket 3.9 17:13:06 10° WSW 17:18:05 31° NW 17:23:06 10° NNE
Unknown 3.7 17:15:30 10° WSW 17:19:35 61° SSE 17:21:12 34° E
NOAA 11 4.2 17:14:31 10° SSE 17:19:59 88° WSW 17:25:28 10° NNW
SL-4 R/B 4.3 17:20:31 10° W 17:23:01 17° SW 17:25:25 10° S
Unknown 3.6 17:19:28 10° WSW 17:23:32 67° SSE 17:24:59 37° E
Cosmos 489 Rocket 4.4 17:19:24 10° S 17:25:29 59° ESE 17:31:34 10° NNE
CZ-2D R/B 3.6 17:21:44 10° S 17:25:33 68° WSW 17:29:25 10° NNW
Gbstr 26 Del rocket 4.1 17:20:00 10° W 17:26:03 76° SSW 17:30:21 26° ESE
Unknown 3.6 17:22:05 10° WSW 17:26:11 65° SSE 17:27:33 39° E
Unknown 3.6 17:23:44 10° WSW 17:27:51 66° SSE 17:29:09 40° E
EO 1 Delta rocket 4.3 17:24:54 10° S 17:29:28 63° W 17:34:19 10° NNW
Unknown 3.6 17:25:25 10° WSW 17:29:32 67° SSE 17:30:47 42° E
Cosmos 1833 Rocket 2.6 17:24:41 10° NNW 17:30:20 75° ENE 17:33:53 24° SE
Cosmos 1812 Rocket 4.0 17:30:08 37° E 17:30:21 37° E 17:34:28 10° NNE
DMSP B5D1-3 4.4 17:25:25 10° NNE 17:30:33 78° ESE 17:35:43 10° SSW
Unknown 3.6 17:27:01 10° WSW 17:31:08 68° SSE 17:32:19 43° E
Unknown 3.6 17:28:41 10° WSW 17:32:49 69° SSE 17:33:56 45° E
Unknown 3.5 17:31:07 10° WSW 17:35:10 79° SSE 17:36:12 48° E
ARGOS 3.5 17:34:15 32° ESE 17:36:04 43° ENE 17:41:12 10° N
Unknown 3.6 17:32:03 10° WSW 17:36:11 70° SSE 17:37:11 49° E
Starlink (trailer) 3.5 17:33:42 10° WSW 17:37:50 71° SSE 17:38:46 50° E
Cosmos 1356 3.6 17:35:45 10° SSW 17:39:11 70° WNW 17:42:38 10° N
YAOGAN 1 4.3 17:35:18 10° SSW 17:39:13 33° W 17:43:10 10° NNW
Cosmos 1703 4.3 17:35:30 10° NNW 17:39:20 47° W 17:43:06 10° SSW
Unknown 3.5 17:35:22 10° WSW 17:39:30 72° SSE 17:40:22 52° E
ADEOS Rocket 3.9 17:32:39 10° NNE 17:39:52 39° E 17:46:44 10° SSE
Cosmos 1953 4.5 17:37:18 10° SW 17:40:52 29° WNW 17:44:29 10° N
Unknown 3.5 17:36:58 10° WSW 17:41:07 73° SSE 17:41:56 54° E
Cosmos 1726 2.7 17:38:54 10° SSW 17:42:31 57° WNW 17:46:09 10° N
SJ-6B 2.8 17:44:01 53° ENE 17:44:01 53° ENE 17:47:37 10° N
Cosmos 1461 2.7 17:40:47 10° NW 17:44:50 82° NE 17:45:38 57° SE
COSMOS 2406 4.1 17:40:26 10° NW 17:45:59 50° WSW 17:51:30 10° S
Cosmos 2084 Rocket 3.8 17:41:50 10° NW 17:46:11 51° NNE 17:46:50 46° ENE
FALCON 9 DEB 3.0 17:42:57 10° W 17:46:27 85° SSW 17:46:30 84° SSE
Unknown 3.5 17:43:35 10° WSW 17:47:44 77° SSE 17:48:17 63° ESE
Unknown 3.5 17:43:38 10° WSW 17:47:47 77° SSE 17:48:20 63° ESE
Cosmos 2082 Rocket 2.1 17:42:10 10° NNW 17:47:55 72° NE 17:50:12 37° SE
Unknown 3.5 17:44:26 10° WSW 17:48:34 77° SSE 17:49:06 64° ESE
Unknown 3.1 17:45:33 10° W 17:49:04 87° SSW 17:49:04 87° SSW
Cosmos 1076 Rocket 3.4 17:44:45 10° N 17:49:09 69° ENE 17:50:05 51° SE
Unknown 3.4 17:48:29 10° WSW 17:52:38 79° SSE 17:52:59 71° ESE
Unknown 3.4 17:48:37 10° WSW 17:52:46 79° SSE 17:53:07 71° ESE
MOS 1 4.3 17:47:55 10° SSE 17:53:36 81° WSW 17:59:18 10° NNW
Unknown 3.4 17:50:23 10° WSW 17:54:31 81° SSE 17:54:50 74° ESE
Unknown 3.4 17:53:41 10° WSW 17:57:50 82° SSE 17:58:01 79° ESE
Unknown 3.4 17:54:14 10° WSW 17:58:23 82° SSE 17:58:32 80° SE
Unknown 3.5 17:55:18 10° W 17:58:15 60° WSW 17:58:15 60° WSW
Unknown 3.4 17:55:16 10° WSW 17:59:25 82° SSE 17:59:32 81° SE
USA 186 4.2 18:02:29 14° NNW 18:02:29 14° NNW 18:02:55 10° NNW
Unknown 3.5 17:58:29 10° WSW 18:02:36 83° S 18:02:36 83° S
SJ-11-01 4.4 18:01:36 27° S 18:04:07 74° WSW 18:08:50 10° NNW
Ariane Rocket 4.1 18:01:04 10° S 18:05:55 44° W 18:10:49 10° NNW
Unknown 3.5 18:01:54 10° WSW 18:05:54 81° SW 18:05:54 81° SW
USA 238 DEB 4.2 18:00:47 10° S 18:05:37 36° SE 18:05:37 36° SE
USA 238 4.2 18:00:55 10° S 18:05:39 35° SE 18:05:39 35° SE
Unknown 3.6 18:03:33 10° WSW 18:07:29 79° SW 18:07:29 79° SW
Falcon 9 debris 4.0 18:05:03 10° W 18:07:41 48° W 18:07:41 48° W
Cosmos 1459 Rocket 3.8 18:02:26 10° N 18:08:39 76° ENE 18:11:19 37° SSE
Unknown 3.6 18:05:15 10° WSW 18:09:07 77° WSW 18:09:07 77° WSW
SPOT 3 Rocket 3.5 18:09:12 43° SSE 18:10:58 89° WSW 18:16:14 10° NNW
Unknown 3.7 18:06:54 10° WSW 18:10:43 74° WSW 18:10:43 74° WSW
Unknown 3.9 18:08:46 10° W 18:11:49 57° WNW 18:11:49 57° WNW
ATLAS CENTAUR R/B 3.4 18:09:07 10° NW 18:12:37 20° N 18:13:14 20° NNE
Unknown 4.2 18:09:08 10° W 18:11:44 46° W 18:11:44 46° W
Unknown 3.8 18:10:11 10° WSW 18:13:52 69° WSW 18:13:52 69° WSW
Unknown 3.9 18:10:35 10° W 18:13:52 61° WNW 18:13:52 61° WNW
Unknown 4.0 18:11:37 10° W 18:14:45 57° WNW 18:14:45 57° WNW
Unknown 3.9 18:11:56 10° W 18:15:33 66° WSW 18:15:33 66° WSW
Cosmos 1844 Rocket 3.9 18:11:02 10° WSW 18:16:20 40° NW 18:21:39 10° NNE
Cosmos 1727 Rocket 4.0 18:11:22 10° SSW 18:17:33 81° W 18:23:46 10° N
In-Cosmos 22 Rocket 3.9 18:12:16 10° NNW 18:17:40 79° ENE 18:18:22 67° SE
Unknown 3.9 18:13:33 10° W 18:17:06 64° W 18:17:06 64° W
Unknown 4.0 18:15:09 10° W 18:18:38 61° W 18:18:38 61° W
Unknown 4.0 18:15:44 10° W 18:19:12 61° W 18:19:12 61° W
Cosmos 1802 Rocket 3.9 18:13:30 10° N 18:19:58 77° ENE 18:21:55 48° SSE
Resurs 01 Rocket 2.6 18:21:45 36° NNE 18:21:45 36° NNE 18:24:39 10° N
Unknown 4.1 18:18:20 10° W 18:21:40 56° W 18:21:40 56° W
Cosmos 1937 Rocket 3.9 18:19:17 10° NNW 18:23:37 47° NNE 18:23:37 47° NNE
Unknown 4.3 18:21:42 10° W 18:24:54 52° W 18:24:54 52° W
Unknown 4.4 18:23:19 10° W 18:26:27 50° W 18:26:27 50° W
Cosmos 2151 4.3 18:24:56 10° N 18:27:21 32° N 18:27:21 32° N
Cosmos 2173 Rocket 4.0 18:23:03 10° NNW 18:29:22 80° W 18:31:57 38° S
Unknown 4.4 18:25:14 10° W 18:28:19 49° W 18:28:19 49° W
H-2A R/B 2.2 18:28:32 56° S 18:29:38 77° WSW 18:35:04 10° NNW
Cosmos 2278 Rocket 2.1 18:26:18 10° SSW 18:32:00 87° WNW 18:34:57 30° NNE
Cosmos 1864 Rocket 4.3 18:25:57 10° N 18:32:03 66° ENE 18:32:03 66° ENE
Cosmos 2084 4.4 18:27:50 10° WSW 18:32:10 45° NNW 18:32:39 43° NNW
Okean 3 Rocket 4.2 18:27:50 10° N 18:31:16 51° N 18:31:16 51° N
SJ 16-02 2.7 18:29:58 10° NNW 18:32:32 32° N 18:32:32 32° N
Cosmos 990 Rocket 4.1 18:29:49 10° NNW 18:34:25 66° N 18:34:25 66° N
SL-08 RB Rocket 4.3 18:36:47 53° NNW 18:36:47 53° NNW 18:40:16 10° NNW
Lacrosse 5 2.1 18:31:11 10° WNW 18:35:56 60° SW 18:35:56 60° SW
Spot 2 Rocket 4.5 18:41:04 36° NNE 18:41:04 36° NNE 18:44:20 10° N
MetOp-A 4.1 18:42:04 76° N 18:42:04 76° N 18:47:02 10° NNW
Cosmos 1725 Rocket 3.8 18:39:32 10° N 18:45:48 80° ENE 18:45:48 80° ENE
CZ-2C R/B 3.2 18:45:55 83° SSW 18:46:08 85° WSW 18:51:59 10° NNW
Cosmos 2100 Rocket 4.4 18:40:43 10° NNW 18:46:49 58° W 18:49:41 31° SSW
ATLAS 5 CENTAUR R/B 3.3 18:43:19 10° W 18:47:30 33° NNW 18:48:45 29° N
Cosmos 2058 4.4 18:48:09 10° NNW 18:51:28 37° WNW 18:51:28 37° WNW
Cosmos 2233 Rocket 4.3 18:46:18 10° N 18:51:23 53° NNE 18:51:23 53° NNE
Cosmos 1000 Rocket 4.5 18:51:36 55° SSW 18:53:04 80° W 18:59:22 10° N
Cosmos 1898 Rocket 4.1 18:59:52 10° NNW 19:04:08 54° WNW 19:04:08 54° WNW
Cosmos 2016 Rocket 4.4 19:06:23 10° NNW 19:12:29 58° W 19:13:08 56° WSW
ARGOS 4.3 19:15:47 36° WSW 19:16:25 37° W 19:21:28 10° NNW
ADEOS Rocket 3.9 19:18:01 10° NNE 19:25:41 62° WNW 19:32:59 10° SW
Cosmos 2227 Rocket 4.4 19:27:14 10° NNW 19:30:17 16° NNE 19:30:17 16° NNE
Cosmos 2082 Rocket 3.9 19:26:57 10° NW 19:31:29 25° WSW 19:32:05 24° WSW
Cosmos 2297 Rocket 4.4 19:33:08 10° NNW 19:36:00 16° NNE 19:36:00 16° NNE
Terra 4.4 19:51:08 14° N 19:51:08 14° N 19:51:53 10° N
ATLAS CENTAUR R/B 4.3 19:48:19 10° NW 19:49:26 16° NNW 19:49:26 16° NNW
Resurs 01 Rocket 4.4 19:59:20 16° NW 19:59:20 16° NW 20:00:36 10° NW
SJ 16-02 4.5 20:09:10 10° NW 20:09:32 12° NW 20:09:32 12° NW
Cosmos 2278 Rocket 4.1 20:12:14 10° W 20:16:55 25° NW 20:16:57 25° NW
ATLAS 3B R/B 4.4 23:23:58 25° NNE 23:23:58 25° NNE 23:27:25 10° ENE
CENTAUR R/B 4.1 23:36:29 36° N 23:36:29 36° N 23:43:15 10° ENE
